Findlay, OH

5:00 PM EST on February 19, 2017 (GMT -0500)
Findlay

Weather History for KFDY - November, 2011

Change the Weather History Date:

Tuesday, November 22, 2011

  Actual Average Record
Temperature  
Mean Temperature 42 °F -  
Max Temperature 46 °F 44 °F 68 °F (2010)
Min Temperature 37 °F 30 °F 12 °F (1964)
Degree Days  
Heating Degree Days 22    
Moisture  
Dew Point 41 °F    
Average Humidity 89    
Maximum Humidity 100    
Minimum Humidity 76    
Precipitation  
Precipitation 0.66 in - - ()
Sea Level Pressure  
Sea Level Pressure 29.86 in    
Wind  
Wind Speed 12 mph (ENE)    
Max Wind Speed 17 mph    
Max Gust Speed 29 mph    
Visibility 6 miles    
Events Rain    
Averages and records for this station are not official NWS values.
T = Trace of Precipitation, MM = Missing Value Source: NWS Daily Summary

Daily Weather History Graph

Daily Weather History Graph

Search for Another Location

Airport or City:

Trip Planner

Search our weather history database for the weather conditions in past years. The results will help you decide how hot, cold, wet, or windy it might be!

Date:

Astronomy

Nov. 22, 2011 Rise Set
Actual Time 7:30 AM EST 5:11 PM EST
Civil Twilight 7:00 AM EST 5:41 PM EST
Nautical Twilight 6:26 AM EST 6:14 PM EST
Astronomical Twilight 5:53 AM EST 6:47 PM EST
Moon 4:18 AM EST (11/22) 3:10 PM EST (11/22)
Length of Visible Light 10h 41m
Length of Day
9h 41m
Waning Crescent, 9% of the Moon is Illuminated
Nov 22
Waning Crescent
Nov 25
New
Dec 2
First Quarter
Dec 10
Full
Dec 17
Last Quarter

Hourly Weather History & Observations

Time (EST) Temp. Windchill Dew Point Humidity Pressure Visibility Wind Dir Wind Speed Gust Speed Precip Events Conditions
12:53 AM 41.0 °F 35.2 °F 37.0 °F 86% 30.21 in 10.0 mi East 9.2 mph - N/A   Overcast
1:13 AM 41.0 °F 35.2 °F 37.4 °F 87% 30.21 in 10.0 mi East 9.2 mph - N/A   Overcast
1:28 AM 41.0 °F 34.7 °F 37.4 °F 87% 30.20 in 10.0 mi ENE 10.4 mph - N/A   Overcast
1:53 AM 41.0 °F 35.2 °F 37.0 °F 86% 30.20 in 10.0 mi ENE 9.2 mph 18.4 mph N/A   Overcast
2:53 AM 41.0 °F 34.7 °F 36.0 °F 82% 30.19 in 10.0 mi ENE 10.4 mph - N/A   Overcast
3:30 AM 41.0 °F 36.4 °F 35.6 °F 81% 30.19 in 10.0 mi ENE 6.9 mph - N/A   Overcast
3:53 AM 41.0 °F 34.7 °F 35.1 °F 79% 30.19 in 10.0 mi ENE 10.4 mph - N/A   Overcast
4:13 AM 41.0 °F 34.3 °F 35.6 °F 81% 30.16 in 10.0 mi ENE 11.5 mph - N/A   Overcast
4:53 AM 41.0 °F 34.7 °F 35.1 °F 79% 30.15 in 10.0 mi ENE 10.4 mph - N/A   Overcast
5:53 AM 39.9 °F 32.9 °F 35.1 °F 83% 30.15 in 10.0 mi ENE 11.5 mph 19.6 mph N/A   Overcast
6:53 AM 41.0 °F 33.1 °F 35.1 °F 79% 30.12 in 10.0 mi ENE 15.0 mph - N/A   Overcast
7:53 AM 42.1 °F 34.9 °F 35.1 °F 76% 30.10 in 10.0 mi ENE 13.8 mph - N/A   Overcast
8:16 AM 42.8 °F 35.4 °F 35.6 °F 76% 30.10 in 10.0 mi East 15.0 mph 21.9 mph N/A   Overcast
8:53 AM 42.1 °F 35.2 °F 36.0 °F 79% 30.09 in 10.0 mi East 12.7 mph 23.0 mph N/A   Overcast
9:27 AM 42.8 °F 35.1 °F 37.4 °F 81% 30.05 in 10.0 mi ENE 16.1 mph 20.7 mph N/A   Overcast
9:39 AM 42.8 °F 35.4 °F 37.4 °F 81% 30.04 in 10.0 mi East 15.0 mph 23.0 mph N/A   Mostly Cloudy
9:53 AM 44.1 °F 37.1 °F 37.0 °F 76% 30.05 in 10.0 mi East 15.0 mph 21.9 mph N/A   Mostly Cloudy
10:15 AM 44.6 °F 38.1 °F 37.4 °F 76% 30.03 in 10.0 mi East 13.8 mph - N/A   Overcast
10:53 AM 45.0 °F 38.9 °F 39.0 °F 80% 30.04 in 10.0 mi East 12.7 mph - N/A   Overcast
11:06 AM 44.6 °F 38.8 °F 39.2 °F 81% 30.01 in 2.0 mi ENE 11.5 mph - 0.03 in Rain Light Rain
11:21 AM 42.8 °F 37.0 °F 39.2 °F 87% 29.99 in 2.0 mi East 10.4 mph - 0.07 in Rain Heavy Rain
11:39 AM 42.8 °F 36.6 °F 41.0 °F 93% 29.97 in 3.0 mi East 11.5 mph - 0.10 in Rain Rain
11:53 AM 43.0 °F 36.0 °F 41.0 °F 93% 29.96 in 4.0 mi ENE 13.8 mph 19.6 mph 0.11 in Rain Rain
12:29 PM 42.8 °F 35.4 °F 41.0 °F 93% 29.92 in 3.0 mi East 15.0 mph - 0.04 in Rain Rain
12:53 PM 44.1 °F 38.1 °F 41.0 °F 89% 29.90 in 3.0 mi East 11.5 mph - 0.07 in Rain Rain
1:03 PM 42.8 °F 36.2 °F 42.8 °F 100% 29.88 in 2.5 mi ENE 12.7 mph - 0.02 in Rain Rain
1:31 PM 42.8 °F 36.2 °F 42.8 °F 100% 29.84 in 3.0 mi ENE 12.7 mph 21.9 mph 0.06 in Rain Light Rain
1:53 PM 44.1 °F 37.1 °F 42.1 °F 93% 29.83 in 3.0 mi ENE 15.0 mph - 0.07 in Rain Rain
2:19 PM 44.6 °F 37.8 °F 42.8 °F 93% 29.80 in 2.0 mi ENE 15.0 mph - 0.04 in Rain Heavy Rain
2:34 PM 44.6 °F 38.4 °F 42.8 °F 93% 29.79 in 5.0 mi ENE 12.7 mph 21.9 mph 0.05 in Rain Light Rain
2:53 PM 44.1 °F 37.7 °F 42.1 °F 93% 29.78 in 3.0 mi ENE 12.7 mph 24.2 mph 0.08 in Rain Rain
3:14 PM 44.6 °F 38.1 °F 42.8 °F 93% 29.76 in 2.0 mi ENE 13.8 mph - N/A Rain Rain
3:22 PM 44.6 °F 37.4 °F 42.8 °F 93% 29.76 in 1.8 mi ENE 16.1 mph 21.9 mph N/A Rain Heavy Rain
3:43 PM 44.6 °F 37.8 °F 42.8 °F 93% 29.74 in 2.0 mi ENE 15.0 mph - N/A Rain Rain
3:53 PM 44.1 °F 38.1 °F 43.0 °F 96% 29.75 in 2.5 mi NE 11.5 mph - N/A Rain Rain
4:01 PM 44.6 °F 38.4 °F 42.8 °F 93% 29.75 in 6.0 mi NE 12.7 mph 18.4 mph 0.00 in Rain Light Rain
4:26 PM 44.6 °F 37.2 °F 42.8 °F 93% 29.73 in 2.5 mi ENE 17.3 mph - 0.04 in Rain Light Rain
4:34 PM 44.6 °F 37.2 °F 42.8 °F 93% 29.73 in 8.0 mi NE 17.3 mph - 0.04 in Rain Light Rain
4:53 PM 45.0 °F 38.2 °F 43.0 °F 93% 29.72 in 8.0 mi ENE 15.0 mph - 0.04 in   Overcast
5:53 PM 45.0 °F 41.2 °F 43.0 °F 93% 29.67 in 10.0 mi East 6.9 mph 16.1 mph 0.03 in Rain Light Rain
6:53 PM 46.0 °F 40.6 °F 44.1 °F 93% 29.62 in 6.0 mi East 11.5 mph - 0.02 in Rain Light Rain
7:19 PM 46.4 °F 41.9 °F 44.6 °F 93% 29.61 in 10.0 mi ENE 9.2 mph - 0.01 in Rain Light Rain
7:53 PM 46.0 °F 41.0 °F 45.0 °F 96% 29.59 in 4.0 mi NNE 10.4 mph - 0.01 in Rain Rain
8:16 PM 46.4 °F 40.7 °F 44.6 °F 93% 29.59 in 2.5 mi North 12.7 mph - 0.09 in Rain Heavy Rain
8:24 PM 46.4 °F 40.4 °F 44.6 °F 93% 29.59 in 5.0 mi North 13.8 mph - 0.11 in Rain Rain
8:30 PM 46.4 °F 40.4 °F 44.6 °F 93% 29.60 in 2.5 mi North 13.8 mph - 0.19 in Rain Heavy Rain
8:44 PM 46.4 °F 41.1 °F 44.6 °F 93% 29.60 in 5.0 mi North 11.5 mph - 0.21 in Rain Rain
8:53 PM 46.0 °F 40.6 °F 45.0 °F 96% 29.59 in 4.0 mi NE 11.5 mph - 0.22 in Rain Light Rain
9:14 PM 46.4 °F 41.1 °F 44.6 °F 93% 29.57 in 10.0 mi NE 11.5 mph - 0.00 in   Overcast
9:35 PM 46.4 °F 41.5 °F 44.6 °F 93% 29.58 in 10.0 mi ENE 10.4 mph - 0.00 in   Overcast
9:43 PM 46.4 °F 41.9 °F 44.6 °F 93% 29.58 in 5.0 mi NE 9.2 mph - 0.00 in Rain Light Rain
9:53 PM 46.9 °F - 46.0 °F 97% 29.59 in 2.0 mi NNE 5.8 mph - 0.00 in Rain Light Rain
9:59 PM 46.4 °F - 46.4 °F 100% 29.59 in 1.8 mi Calm Calm - 0.00 in Rain Light Rain
10:29 PM 46.4 °F 41.1 °F 44.6 °F 93% 29.61 in 4.0 mi NNW 11.5 mph - 0.01 in Rain Light Rain
10:42 PM 44.6 °F 37.8 °F 42.8 °F 93% 29.62 in 6.0 mi NNW 15.0 mph - 0.01 in Rain Light Rain
11:32 PM 39.2 °F 30.8 °F 37.4 °F 93% 29.68 in 10.0 mi NW 15.0 mph 28.8 mph 0.01 in Rain Light Rain
11:53 PM 37.9 °F 28.9 °F 36.0 °F 93% 29.71 in 10.0 mi NNW 16.1 mph 26.5 mph 0.01 in Rain Light Rain